Time,TemperatureF,DewpointF,PressureIn,WindDirection,WindDirectionDegrees,WindSpeedMPH,WindSpeedGustMPH,Humidity,HourlyPrecipIn,Conditions,Clouds,dailyrainin,SoftwareType,DateUTC
2013-05-29 00:01:00,68.0,-99.9,29.79,SE,127,5.0,9.0,-999,-99.99,,,-99.99,,2013-05-29 07:01:00,
2013-05-29 00:12:00,68.0,-99.9,29.83,SE,146,4.0,10.0,-999,-99.99,,,-99.99,,2013-05-29 07:12:00,
2013-05-29 00:22:00,68.0,-99.9,29.83,SE,146,4.0,10.0,-999,-99.99,,,-99.99,,2013-05-29 07:22:00,
2013-05-29 00:35:00,68.0,-99.9,29.83,SE,134,3.0,6.0,-999,-99.99,,,-99.99,,2013-05-29 07:35:00,
2013-05-29 00:42:00,68.0,-99.9,29.83,SE,134,3.0,6.0,-999,-99.99,,,-99.99,,2013-05-29 07:42:00,
2013-05-29 00:53:00,67.0,-99.9,29.82,SE,126,3.0,5.0,-999,-99.99,,,-99.99,,2013-05-29 07:53:00,
2013-05-29 01:02:00,67.0,-99.9,29.82,SE,144,4.0,6.0,-999,-99.99,,,-99.99,,2013-05-29 08:02:00,
2013-05-29 01:10:00,67.0,-99.9,29.80,SE,142,3.0,6.0,-999,-99.99,,,-99.99,,2013-05-29 08:10:00,
2013-05-29 01:11:00,67.0,-99.9,29.82,SE,144,4.0,6.0,-999,-99.99,,,-99.99,,2013-05-29 08:11:00,
2013-05-29 01:22:00,67.0,-99.9,29.82,SE,144,4.0,6.0,-999,-99.99,,,-99.99,,2013-05-29 08:22:00,
2013-05-29 01:32:00,67.0,-99.9,29.80,SE,142,3.0,6.0,-999,-99.99,,,-99.99,,2013-05-29 08:32:00,
2013-05-29 01:42:00,67.0,-99.9,29.80,SE,142,3.0,6.0,-999,-99.99,,,-99.99,,2013-05-29 08:42:00,
2013-05-29 01:52:00,67.0,-99.9,29.80,SE,142,3.0,6.0,-999,-99.99,,,-99.99,,2013-05-29 08:52:00,
2013-05-29 02:02:00,67.0,-99.9,29.80,SE,142,3.0,6.0,-999,-99.99,,,-99.99,,2013-05-29 09:02:00,
2013-05-29 02:22:00,66.0,-99.9,29.81,SE,126,3.0,7.0,-999,-99.99,,,-99.99,,2013-05-29 09:22:00,
2013-05-29 02:33:00,66.0,-99.9,29.82,SSE,148,4.0,10.0,-999,-99.99,,,-99.99,,2013-05-29 09:33:00,
2013-05-29 02:42:00,66.0,-99.9,29.82,SSE,148,4.0,10.0,-999,-99.99,,,-99.99,,2013-05-29 09:42:00,
2013-05-29 02:53:00,66.0,-99.9,29.82,SSE,148,4.0,10.0,-999,-99.99,,,-99.99,,2013-05-29 09:53:00,
2013-05-29 03:03:00,66.0,-99.9,29.81,ESE,119,2.0,7.0,-999,-99.99,,,-99.99,,2013-05-29 10:03:00,
2013-05-29 03:12:00,66.0,-99.9,29.80,SE,132,2.0,4.0,-999,-99.99,,,-99.99,,2013-05-29 10:12:00,
2013-05-29 03:22:00,66.0,-99.9,29.80,SE,132,2.0,4.0,-999,-99.99,,,-99.99,,2013-05-29 10:22:00,
2013-05-29 03:33:00,65.0,-99.9,29.79,SE,130,2.0,4.0,-999,-99.99,,,-99.99,,2013-05-29 10:33:00,
2013-05-29 03:42:00,65.0,-99.9,29.79,SE,130,2.0,4.0,-999,-99.99,,,-99.99,,2013-05-29 10:42:00,
2013-05-29 03:53:00,65.0,-99.9,29.79,ESE,120,2.0,4.0,-999,-99.99,,,-99.99,,2013-05-29 10:53:00,
2013-05-29 04:02:00,65.0,-99.9,29.80,SSE,148,1.0,2.0,-999,-99.99,,,-99.99,,2013-05-29 11:02:00,
2013-05-29 04:12:00,65.0,-99.9,29.80,SSE,148,1.0,2.0,-999,-99.99,,,-99.99,,2013-05-29 11:12:00,
2013-05-29 04:22:00,65.0,-99.9,29.80,SSE,148,1.0,2.0,-999,-99.99,,,-99.99,,2013-05-29 11:22:00,
2013-05-29 04:32:00,65.0,-99.9,29.80,SSE,148,1.0,2.0,-999,-99.99,,,-99.99,,2013-05-29 11:32:00,
2013-05-29 04:42:00,65.0,-99.9,29.80,SSE,148,1.0,2.0,-999,-99.99,,,-99.99,,2013-05-29 11:42:00,
2013-05-29 04:52:00,65.0,-99.9,29.80,SE,135,1.0,3.0,-999,-99.99,,,-99.99,,2013-05-29 11:52:00,
2013-05-29 05:01:00,65.0,-99.9,29.80,ESE,114,3.0,5.0,-999,-99.99,,,-99.99,,2013-05-29 12:01:00,
2013-05-29 05:11:00,65.0,-99.9,29.80,ESE,114,3.0,5.0,-999,-99.99,,,-99.99,,2013-05-29 12:11:00,
2013-05-29 05:22:00,65.0,-99.9,29.78,East,89,2.0,4.0,-999,-99.99,,,-99.99,,2013-05-29 12:22:00,
2013-05-29 05:32:00,65.0,-99.9,29.78,East,89,2.0,4.0,-999,-99.99,,,-99.99,,2013-05-29 12:32:00,
2013-05-29 05:42:00,65.0,-99.9,29.78,East,89,2.0,4.0,-999,-99.99,,,-99.99,,2013-05-29 12:42:00,
2013-05-29 05:52:00,65.0,-99.9,29.80,ENE,69,3.0,4.0,-999,-99.99,,,-99.99,,2013-05-29 12:52:00,
2013-05-29 06:00:00,65.0,-99.9,29.80,ENE,74,2.0,3.0,-999,-99.99,,,-99.99,,2013-05-29 13:00:00,
2013-05-29 06:02:00,65.0,-99.9,29.80,ESE,102,1.0,3.0,-999,-99.99,,,-99.99,,2013-05-29 13:02:00,
2013-05-29 06:11:00,65.0,-99.9,29.80,ESE,102,1.0,3.0,-999,-99.99,,,-99.99,,2013-05-29 13:11:00,
2013-05-29 06:22:00,65.0,-99.9,29.80,ENE,74,2.0,3.0,-999,-99.99,,,-99.99,,2013-05-29 13:22:00,
2013-05-29 06:32:00,65.0,-99.9,29.80,ENE,74,2.0,3.0,-999,-99.99,,,-99.99,,2013-05-29 13:32:00,
2013-05-29 06:42:00,65.0,-99.9,29.80,ENE,74,2.0,3.0,-999,-99.99,,,-99.99,,2013-05-29 13:42:00,
2013-05-29 06:53:00,65.0,-99.9,29.80,ENE,74,2.0,3.0,-999,-99.99,,,-99.99,,2013-05-29 13:53:00,
2013-05-29 07:22:00,65.0,-99.9,29.81,ENE,77,1.0,3.0,-999,-99.99,,,-99.99,,2013-05-29 14:22:00,
2013-05-29 07:32:00,65.0,-99.9,29.82,North,4,0.0,3.0,-999,-99.99,,,-99.99,,2013-05-29 14:32:00,
2013-05-29 07:42:00,65.0,-99.9,29.82,North,4,0.0,3.0,-999,-99.99,,,-99.99,,2013-05-29 14:42:00,
2013-05-29 07:52:00,65.0,-99.9,29.81,NE,41,2.0,3.0,-999,-99.99,,,-99.99,,2013-05-29 14:52:00,
2013-05-29 08:01:00,65.0,-99.9,29.81,NNE,22,2.0,4.0,-999,-99.99,,,-99.99,,2013-05-29 15:01:00,
2013-05-29 08:11:00,65.0,-99.9,29.81,NNE,22,2.0,4.0,-999,-99.99,,,-99.99,,2013-05-29 15:11:00,
2013-05-29 08:22:00,65.0,-99.9,29.81,NNE,22,2.0,4.0,-999,-99.99,,,-99.99,,2013-05-29 15:22:00,
2013-05-29 08:33:00,66.0,-99.9,29.82,East,88,3.0,7.0,-999,-99.99,,,-99.99,,2013-05-29 15:33:00,
2013-05-29 08:43:00,66.0,-99.9,29.82,East,88,3.0,7.0,-999,-99.99,,,-99.99,,2013-05-29 15:43:00,
2013-05-29 08:53:00,67.0,-99.9,29.81,South,170,1.0,5.0,-999,-99.99,,,-99.99,,2013-05-29 15:53:00,
2013-05-29 09:03:00,67.0,-99.9,29.80,SE,143,2.0,6.0,-999,-99.99,,,-99.99,,2013-05-29 16:03:00,
2013-05-29 09:13:00,67.0,-99.9,29.80,SE,143,2.0,6.0,-999,-99.99,,,-99.99,,2013-05-29 16:13:00,
2013-05-29 09:22:00,67.0,-99.9,29.80,SE,143,2.0,6.0,-999,-99.99,,,-99.99,,2013-05-29 16:22:00,
2013-05-29 09:33:00,69.0,-99.9,29.82,SSW,205,3.0,5.0,-999,-99.99,,,-99.99,,2013-05-29 16:33:00,
2013-05-29 09:42:00,69.0,-99.9,29.82,SSW,205,3.0,5.0,-999,-99.99,,,-99.99,,2013-05-29 16:42:00,
2013-05-29 09:52:00,69.0,-99.9,29.82,SSW,205,3.0,5.0,-999,-99.99,,,-99.99,,2013-05-29 16:52:00,
2013-05-29 10:02:00,69.0,-99.9,29.82,SSW,205,3.0,5.0,-999,-99.99,,,-99.99,,2013-05-29 17:02:00,
2013-05-29 10:12:00,71.0,-99.9,29.83,West,260,3.0,7.0,-999,-99.99,,,-99.99,,2013-05-29 17:12:00,
2013-05-29 10:22:00,71.0,-99.9,29.83,West,260,3.0,7.0,-999,-99.99,,,-99.99,,2013-05-29 17:22:00,
2013-05-29 10:33:00,71.0,-99.9,29.83,West,260,3.0,7.0,-999,-99.99,,,-99.99,,2013-05-29 17:33:00,
2013-05-29 10:43:00,71.0,-99.9,29.83,West,260,3.0,7.0,-999,-99.99,,,-99.99,,2013-05-29 17:43:00,
2013-05-29 10:52:00,72.0,-99.9,29.82,SSE,168,2.0,11.0,-999,-99.99,,,-99.99,,2013-05-29 17:52:00,
2013-05-29 11:02:00,72.0,-99.9,29.82,SSE,168,2.0,11.0,-999,-99.99,,,-99.99,,2013-05-29 18:02:00,
2013-05-29 11:13:00,72.0,-99.9,29.82,SSE,168,2.0,11.0,-999,-99.99,,,-99.99,,2013-05-29 18:13:00,
2013-05-29 11:22:00,72.0,-99.9,29.82,SSE,168,2.0,11.0,-999,-99.99,,,-99.99,,2013-05-29 18:22:00,
2013-05-29 11:32:00,73.0,-99.9,29.84,SSE,154,7.0,14.0,-999,-99.99,,,-99.99,,2013-05-29 18:32:00,
2013-05-29 11:42:00,73.0,-99.9,29.84,SSE,154,7.0,14.0,-999,-99.99,,,-99.99,,2013-05-29 18:42:00,
2013-05-29 11:52:00,73.0,-99.9,29.84,SSE,154,7.0,14.0,-999,-99.99,,,-99.99,,2013-05-29 18:52:00,
2013-05-29 12:02:00,73.0,-99.9,29.84,SSE,154,7.0,14.0,-999,-99.99,,,-99.99,,2013-05-29 19:02:00,
2013-05-29 12:12:00,75.0,-99.9,29.81,SSE,164,5.0,12.0,-999,-99.99,,,-99.99,,2013-05-29 19:12:00,
2013-05-29 12:22:00,75.0,-99.9,29.81,SSE,164,5.0,12.0,-999,-99.99,,,-99.99,,2013-05-29 19:22:00,
2013-05-29 12:32:00,76.0,-99.9,29.81,South,181,4.0,12.0,-999,-99.99,,,-99.99,,2013-05-29 19:32:00,
2013-05-29 12:44:00,76.0,-99.9,29.82,SW,229,7.0,12.0,-999,-99.99,,,-99.99,,2013-05-29 19:44:00,
2013-05-29 12:53:00,76.0,-99.9,29.82,SW,229,7.0,12.0,-999,-99.99,,,-99.99,,2013-05-29 19:53:00,
2013-05-29 13:03:00,76.0,-99.9,29.82,SW,229,7.0,12.0,-999,-99.99,,,-99.99,,2013-05-29 20:03:00,
2013-05-29 13:12:00,77.0,-99.9,29.81,SW,235,7.0,12.0,-999,-99.99,,,-99.99,,2013-05-29 20:12:00,
2013-05-29 13:23:00,77.0,-99.9,29.81,SW,235,7.0,12.0,-999,-99.99,,,-99.99,,2013-05-29 20:23:00,
2013-05-29 13:33:00,78.0,-99.9,29.80,SW,228,6.0,12.0,-999,-99.99,,,-99.99,,2013-05-29 20:33:00,
2013-05-29 13:42:00,78.0,-99.9,29.80,SW,228,6.0,12.0,-999,-99.99,,,-99.99,,2013-05-29 20:42:00,
2013-05-29 13:53:00,78.0,-99.9,29.79,WSW,245,5.0,12.0,-999,-99.99,,,-99.99,,2013-05-29 20:53:00,
2013-05-29 14:02:00,78.0,-99.9,29.78,SSW,208,6.0,13.0,-999,-99.99,,,-99.99,,2013-05-29 21:02:00,
2013-05-29 14:12:00,78.0,-99.9,29.78,SSW,208,6.0,13.0,-999,-99.99,,,-99.99,,2013-05-29 21:12:00,
2013-05-29 14:22:00,78.0,-99.9,29.78,SSW,209,7.0,12.0,-999,-99.99,,,-99.99,,2013-05-29 21:22:00,
2013-05-29 14:33:00,78.0,-99.9,29.79,South,190,6.0,15.0,-999,-99.99,,,-99.99,,2013-05-29 21:33:00,
2013-05-29 14:44:00,78.0,-99.9,29.78,South,173,8.0,15.0,-999,-99.99,,,-99.99,,2013-05-29 21:44:00,
2013-05-29 14:53:00,78.0,-99.9,29.78,South,173,8.0,15.0,-999,-99.99,,,-99.99,,2013-05-29 21:53:00,
2013-05-29 15:03:00,78.0,-99.9,29.78,South,173,8.0,15.0,-999,-99.99,,,-99.99,,2013-05-29 22:03:00,
2013-05-29 15:13:00,78.0,-99.9,29.78,South,173,8.0,15.0,-999,-99.99,,,-99.99,,2013-05-29 22:13:00,
2013-05-29 15:20:00,79.0,-99.9,29.77,SSW,210,6.0,14.0,-999,-99.99,,,-99.99,,2013-05-29 22:20:00,
2013-05-29 15:23:00,79.0,-99.9,29.77,SW,215,5.0,11.0,-999,-99.99,,,-99.99,,2013-05-29 22:23:00,
2013-05-29 15:34:00,79.0,-99.9,29.77,SSW,210,6.0,14.0,-999,-99.99,,,-99.99,,2013-05-29 22:34:00,
2013-05-29 15:43:00,79.0,-99.9,29.77,SSW,210,6.0,14.0,-999,-99.99,,,-99.99,,2013-05-29 22:43:00,
2013-05-29 15:53:00,79.0,-99.9,29.77,SSW,210,6.0,14.0,-999,-99.99,,,-99.99,,2013-05-29 22:53:00,
2013-05-29 16:02:00,79.0,-99.9,29.77,SSW,210,6.0,14.0,-999,-99.99,,,-99.99,,2013-05-29 23:02:00,
2013-05-29 16:12:00,79.0,-99.9,29.77,SSW,210,6.0,14.0,-999,-99.99,,,-99.99,,2013-05-29 23:12:00,
2013-05-29 16:33:00,79.0,-99.9,29.78,SSW,196,7.0,17.0,-999,-99.99,,,-99.99,,2013-05-29 23:33:00,
2013-05-29 16:43:00,79.0,-99.9,29.75,South,170,8.0,12.0,-999,-99.99,,,-99.99,,2013-05-29 23:43:00,
2013-05-29 16:53:00,79.0,-99.9,29.75,South,170,8.0,12.0,-999,-99.99,,,-99.99,,2013-05-29 23:53:00,
2013-05-29 17:02:00,79.0,-99.9,29.75,South,170,8.0,12.0,-999,-99.99,,,-99.99,,2013-05-30 00:02:00,
2013-05-29 17:12:00,79.0,-99.9,29.75,South,170,8.0,12.0,-999,-99.99,,,-99.99,,2013-05-30 00:12:00,
2013-05-29 17:22:00,78.0,-99.9,29.76,South,184,8.0,15.0,-999,-99.99,,,-99.99,,2013-05-30 00:22:00,
2013-05-29 17:32:00,78.0,-99.9,29.75,SSE,163,8.0,15.0,-999,-99.99,,,-99.99,,2013-05-30 00:32:00,
2013-05-29 17:42:00,78.0,-99.9,29.75,SSE,163,8.0,15.0,-999,-99.99,,,-99.99,,2013-05-30 00:42:00,
2013-05-29 17:52:00,77.0,-99.9,29.76,South,184,7.0,12.0,-999,-99.99,,,-99.99,,2013-05-30 00:52:00,
2013-05-29 18:02:00,77.0,-99.9,29.76,South,189,6.0,13.0,-999,-99.99,,,-99.99,,2013-05-30 01:02:00,
2013-05-29 18:11:00,77.0,-99.9,29.78,South,184,7.0,11.0,-999,-99.99,,,-99.99,,2013-05-30 01:11:00,
2013-05-29 18:22:00,77.0,-99.9,29.78,South,184,7.0,11.0,-999,-99.99,,,-99.99,,2013-05-30 01:22:00,
2013-05-29 18:32:00,76.0,-99.9,29.77,South,187,5.0,12.0,-999,-99.99,,,-99.99,,2013-05-30 01:32:00,
2013-05-29 18:42:00,76.0,-99.9,29.77,South,187,5.0,12.0,-999,-99.99,,,-99.99,,2013-05-30 01:42:00,
2013-05-29 18:52:00,76.0,-99.9,29.76,South,189,5.0,10.0,-999,-99.99,,,-99.99,,2013-05-30 01:52:00,
2013-05-29 19:02:00,75.0,-99.9,29.77,SE,144,5.0,12.0,-999,-99.99,,,-99.99,,2013-05-30 02:02:00,
2013-05-29 19:11:00,75.0,-99.9,29.77,SE,144,5.0,12.0,-999,-99.99,,,-99.99,,2013-05-30 02:11:00,
2013-05-29 19:22:00,75.0,-99.9,29.76,South,184,6.0,13.0,-999,-99.99,,,-99.99,,2013-05-30 02:22:00,
2013-05-29 19:32:00,75.0,-99.9,29.79,South,176,5.0,9.0,-999,-99.99,,,-99.99,,2013-05-30 02:32:00,
2013-05-29 19:42:00,75.0,-99.9,29.79,South,176,5.0,9.0,-999,-99.99,,,-99.99,,2013-05-30 02:42:00,
2013-05-29 19:52:00,75.0,-99.9,29.79,South,176,5.0,9.0,-999,-99.99,,,-99.99,,2013-05-30 02:52:00,
2013-05-29 20:02:00,75.0,-99.9,29.78,South,183,7.0,11.0,-999,-99.99,,,-99.99,,2013-05-30 03:02:00,
2013-05-29 20:12:00,73.0,-99.9,29.79,SSE,160,5.0,11.0,-999,-99.99,,,-99.99,,2013-05-30 03:12:00,
2013-05-29 20:22:00,73.0,-99.9,29.79,SSE,160,5.0,11.0,-999,-99.99,,,-99.99,,2013-05-30 03:22:00,
2013-05-29 20:33:00,73.0,-99.9,29.80,South,172,5.0,12.0,-999,-99.99,,,-99.99,,2013-05-30 03:33:00,
2013-05-29 20:43:00,73.0,-99.9,29.80,South,172,5.0,12.0,-999,-99.99,,,-99.99,,2013-05-30 03:43:00,
2013-05-29 20:53:00,73.0,-99.9,29.80,South,172,5.0,12.0,-999,-99.99,,,-99.99,,2013-05-30 03:53:00,
2013-05-29 21:03:00,72.0,-99.9,29.80,SSW,192,5.0,12.0,-999,-99.99,,,-99.99,,2013-05-30 04:03:00,
2013-05-29 21:13:00,72.0,-99.9,29.80,SSW,192,5.0,12.0,-999,-99.99,,,-99.99,,2013-05-30 04:13:00,
2013-05-29 21:23:00,71.0,-99.9,29.80,South,169,4.0,9.0,-999,-99.99,,,-99.99,,2013-05-30 04:23:00,
2013-05-29 21:33:00,71.0,-99.9,29.80,South,169,4.0,9.0,-999,-99.99,,,-99.99,,2013-05-30 04:33:00,
2013-05-29 21:40:00,70.0,-99.9,29.81,SSE,153,4.0,9.0,-999,-99.99,,,-99.99,,2013-05-30 04:40:00,
2013-05-29 21:42:00,71.0,-99.9,29.80,South,169,4.0,9.0,-999,-99.99,,,-99.99,,2013-05-30 04:42:00,
2013-05-29 21:53:00,71.0,-99.9,29.81,South,176,5.0,8.0,-999,-99.99,,,-99.99,,2013-05-30 04:53:00,
2013-05-29 22:02:00,70.0,-99.9,29.81,SSE,153,4.0,9.0,-999,-99.99,,,-99.99,,2013-05-30 05:02:00,
2013-05-29 22:12:00,70.0,-99.9,29.81,SSE,153,4.0,9.0,-999,-99.99,,,-99.99,,2013-05-30 05:12:00,
2013-05-29 22:22:00,70.0,-99.9,29.81,SSE,153,4.0,9.0,-999,-99.99,,,-99.99,,2013-05-30 05:22:00,
2013-05-29 22:32:00,70.0,-99.9,29.81,SSE,153,4.0,9.0,-999,-99.99,,,-99.99,,2013-05-30 05:32:00,